Location: Hokitika
(42.7170°S, 170.9670°E)
Time: 05:34:36
(UTC+13:00)

Cosmos 2237 Rocket - Visible Passes

Search period start: 10 December 2019 00:00
Search period end: 20 December 2019 00:00
Orbit: 834 x 850 km, 71.0° (Epoch: 09 December)

Date Brightness Start Highest point End Pass type
(mag) Time Alt. Az. Time Alt. Az. Time Alt. Az.
13 Dec 4.7 05:11:43 10° NE 05:15:09 17° E 05:18:35 10° ESE visible
14 Dec 4.7 04:57:05 10° NE 05:00:20 16° E 05:03:34 10° ESE visible
15 Dec 4.7 04:42:29 10° NE 04:45:31 15° E 04:48:33 10° ESE visible
16 Dec 4.7 04:27:53 10° NE 04:30:42 14° E 04:33:31 10° ESE visible
17 Dec 4.7 04:13:20 10° ENE 04:15:53 13° E 04:18:27 10° ESE visible
18 Dec 4.7 03:58:48 10° ENE 04:01:04 12° E 04:03:21 10° ESE visible
19 Dec 4.7 03:44:20 10° ENE 03:46:16 12° E 03:48:11 10° ESE visible
